(282504) = 2004 PA101

Discovered at Socorro on 2004-08-11 by LINEAR.

Orbit

Orbit type: Main Belt

Note: WebGL enabled browser required.

epoch2024-03-31.0
epoch JD2460400.5
perihelion date2021-12-23.07697
perihelion JD2459571.57698
argument of perihelion (°)24.37648
ascending node (°)318.28462
inclination (°)6.65019
eccentricity0.1389017
perihelion distance (AU)1.9750038
Tisserand w.r.t. Jupiter3.6
ΔV w.r.t. Earth (km/sec)8.9
semimajor axis (AU)2.2935868
mean anomaly (°)235.20443
mean daily motion (°/day)0.28374700
aphelion distance (AU)2.612
period (years)3.47
P-vector [x]0.95271076
P-vector [y]-0.29434536
P-vector [z]-0.07551829
Q-vector [x]0.29394506
Q-vector [y]0.82963437
Q-vector [z]0.47466105
absolute magnitude16.98
phase slope0.15
uncertainty0
referenceE2024-H18
observations used360
oppositions14
arc length (days)9193
first opposition used1999
last opposition used2024
residual rms (arc-secs)0.68
perturbers coarse indicatorM-v
perturbers precise indicator003Ek
first observation date used1999-02-14.0
last observation date used2024-04-16.0
computer nameMPCLINUX
JD of orbit computation2455872.627113
perihelion JD uncertainty (days)5.7653E-05
argument of perihelion uncertainty (°)5.8821E-05
ascending node uncertainty (°)5.6084E-05
inclination uncertainty (°)7.9756E-06
eccentricity uncertainty 1.1206E-07
perihelion distance uncertainty (AU)2.5698E-07
Minimum Orbit Intersection Distances (in AU)
for orbit epoch: 2460400.5, reference: E2024-H18
Mercury1.58192
Venus1.25353
Earth0.96833
Mars0.60505
Jupiter2.74925
Saturn6.59414
Uranus15.8333
Neptune27.655

Observations

368 total observations over interval: 1999 02 14.27863 – 2023 02 11.125896
These data are available for download (format description).

Date (UT) J2000 RA J2000 Dec Magn Location Ref
1999 02 14.27863 09 19 02.92 +15 17 42.0 20.3 V 691 – Steward Observatory, Kitt Peak-Spacewatch MPS 115287
1999 02 14.30118 09 19 01.39 +15 17 45.0 20.6 V 691 – Steward Observatory, Kitt Peak-Spacewatch MPS 115287
1999 02 14.32303 09 18 59.90 +15 17 48.3 20.6 V 691 – Steward Observatory, Kitt Peak-Spacewatch MPS 115287
2001 12 09.30875 05 37 15.56 +33 01 54.1 19.7   704 – Lincoln Laboratory ETS, New Mexico MPS 115287
2001 12 09.32365 05 37 14.37 +33 01 51.8 20.0   704 – Lincoln Laboratory ETS, New Mexico MPS 115287
2001 12 09.33856 05 37 13.15 +33 01 51.0 19.9   704 – Lincoln Laboratory ETS, New Mexico MPS 115287
2004 08 11.33434 00 05 34.76 +05 47 42.8 19.9   704 – Lincoln Laboratory ETS, New Mexico MPS 111913
2004 08 11.34426 00 05 34.63 +05 47 47.3 19.8   704 – Lincoln Laboratory ETS, New Mexico MPS 111913
2004 08 11.35417 00 05 34.51 +05 47 50.2 20.0   704 – Lincoln Laboratory ETS, New Mexico MPS 111913
2004 08 11.36402 00 05 34.38 +05 47 54.0 20.3   704 – Lincoln Laboratory ETS, New Mexico MPS 111913
2004 08 11.37395 00 05 34.28 +05 47 57.0 20.2   704 – Lincoln Laboratory ETS, New Mexico MPS 111913
2004 08 17.32613 00 03 56.92 +06 17 16.2 19.3   704 – Lincoln Laboratory ETS, New Mexico MPS 111913
2004 08 17.33626 00 03 56.68 +06 17 19.6 20.5   704 – Lincoln Laboratory ETS, New Mexico MPS 111913
2004 08 17.34758 00 03 56.36 +06 17 22.7 20.0   704 – Lincoln Laboratory ETS, New Mexico MPS 111913
2004 09 09.29461 23 47 44.95 +07 00 44.2 18.4   644 – Palomar Mountain/NEAT MPS 114400
2004 09 09.36912 23 47 40.43 +07 00 42.4 18.8   644 – Palomar Mountain/NEAT MPS 114400
2004 09 09.41117 23 47 37.89 +07 00 40.4 18.4   644 – Palomar Mountain/NEAT MPS 114400
2004 09 10.23847 23 46 50.35 +07 00 09.4 18.7   704 – Lincoln Laboratory ETS, New Mexico MPS 112994
2004 09 10.25029 23 46 49.65 +07 00 08.6 19.4   704 – Lincoln Laboratory ETS, New Mexico MPS 112994
2004 09 10.26220 23 46 48.93 +07 00 08.4 19.3   704 – Lincoln Laboratory ETS, New Mexico MPS 112994
2004 09 10.27404 23 46 48.19 +07 00 07.5 19.7   704 – Lincoln Laboratory ETS, New Mexico MPS 112994
2004 09 10.28630 23 46 47.43 +07 00 06.6 19.4   704 – Lincoln Laboratory ETS, New Mexico MPS 112994
2004 09 13.23758 23 43 53.10 +06 57 10.2 19.0   704 – Lincoln Laboratory ETS, New Mexico MPS 112994
2004 09 13.24968 23 43 52.33 +06 57 09.2 19.1   704 – Lincoln Laboratory ETS, New Mexico MPS 112994
2004 09 13.27444 23 43 50.80 +06 57 07.1 19.2   704 – Lincoln Laboratory ETS, New Mexico MPS 112994
2004 09 13.28675 23 43 50.01 +06 57 06.5 19.2   704 – Lincoln Laboratory ETS, New Mexico MPS 112994
2004 09 13.39214 23 43 43.41 +06 56 58.2 18.9 V 691 – Steward Observatory, Kitt Peak-Spacewatch MPS 112994
2004 09 13.40655 23 43 42.50 +06 56 56.9 18.9 V 691 – Steward Observatory, Kitt Peak-Spacewatch MPS 112994
2004 09 13.42052 23 43 41.64 +06 56 55.7 19.0 V 691 – Steward Observatory, Kitt Peak-Spacewatch MPS 112994
2004 09 16.26382 23 40 50.73 +06 52 33.2 18.4 R 699 – Lowell Observatory-LONEOS MPS 115287
2004 09 16.28172 23 40 49.61 +06 52 31.5   699 – Lowell Observatory-LONEOS MPS 115287
2004 09 16.29960 23 40 48.48 +06 52 28.6   699 – Lowell Observatory-LONEOS MPS 115287
2004 09 16.31748 23 40 47.31 +06 52 26.6   699 – Lowell Observatory-LONEOS MPS 115287
2004 09 18.25120 23 38 50.46 +06 48 45.3 18.8   704 – Lincoln Laboratory ETS, New Mexico MPS 114400
2004 09 18.26335 23 38 49.68 +06 48 43.5 18.9   704 – Lincoln Laboratory ETS, New Mexico MPS 114400
2004 09 18.27553 23 38 48.89 +06 48 42.2 19.2   704 – Lincoln Laboratory ETS, New Mexico MPS 114400
2004 09 18.28767 23 38 48.18 +06 48 40.1 19.5   704 – Lincoln Laboratory ETS, New Mexico MPS 114400
2004 09 18.29988 23 38 47.34 +06 48 38.9 19.4   704 – Lincoln Laboratory ETS, New Mexico MPS 114400
2004 09 22.22989 23 34 52.34 +06 39 33.8 19.2   704 – Lincoln Laboratory ETS, New Mexico MPS 114400
2004 09 22.24201 23 34 51.57 +06 39 31.8 19.0   704 – Lincoln Laboratory ETS, New Mexico MPS 114400
2004 09 22.25415 23 34 50.81 +06 39 30.0 18.8   704 – Lincoln Laboratory ETS, New Mexico MPS 114400
2004 09 22.26628 23 34 50.05 +06 39 28.3 18.8   704 – Lincoln Laboratory ETS, New Mexico MPS 114400
2004 09 22.27845 23 34 49.34 +06 39 26.0 18.9   704 – Lincoln Laboratory ETS, New Mexico MPS 114400
2004 09 24.23160 23 32 55.37 +06 34 15.5 19.0   704 – Lincoln Laboratory ETS, New Mexico MPS 114400
2004 09 24.24400 23 32 54.60 +06 34 14.1 19.1   704 – Lincoln Laboratory ETS, New Mexico MPS 114400
2004 09 24.25641 23 32 53.87 +06 34 12.3 19.1   704 – Lincoln Laboratory ETS, New Mexico MPS 114400
2004 09 24.26880 23 32 53.09 +06 34 10.1 19.3   704 – Lincoln Laboratory ETS, New Mexico MPS 114400
2004 09 24.28122 23 32 52.31 +06 34 07.9 19.4   704 – Lincoln Laboratory ETS, New Mexico MPS 114400
2004 10 05.29534 23 23 20.07 +06 00 41.5 18.4   644 – Palomar Mountain/NEAT MPS 115762
2004 10 05.32003 23 23 18.89 +06 00 36.8 18.5   644 – Palomar Mountain/NEAT MPS 115762
2004 10 05.35149 23 23 17.41 +06 00 30.9 18.1   644 – Palomar Mountain/NEAT MPS 115762
2004 10 07.22947 23 21 56.81 +05 54 36.3 19.0   704 – Lincoln Laboratory ETS, New Mexico MPS 115762
2004 10 07.24108 23 21 56.30 +05 54 33.6 19.7   704 – Lincoln Laboratory ETS, New Mexico MPS 115762
2004 10 07.25212 23 21 55.80 +05 54 31.3 19.9   704 – Lincoln Laboratory ETS, New Mexico MPS 115762
2004 10 07.26305 23 21 55.31 +05 54 29.7 19.2   704 – Lincoln Laboratory ETS, New Mexico MPS 115762
2004 10 07.27389 23 21 54.85 +05 54 27.6 19.2   704 – Lincoln Laboratory ETS, New Mexico MPS 115762
2004 10 10.19665 23 20 01.48 +05 45 27.2 18.9   704 – Lincoln Laboratory ETS, New Mexico MPS 116639
2004 10 10.20769 23 20 01.00 +05 45 25.2 19.4   704 – Lincoln Laboratory ETS, New Mexico MPS 116639
2004 10 10.21928 23 20 00.67 +05 45 23.0 19.7   704 – Lincoln Laboratory ETS, New Mexico MPS 116639
2004 10 10.23022 23 20 00.17 +05 45 21.0 19.3   704 – Lincoln Laboratory ETS, New Mexico MPS 116639
2004 10 10.24202 23 19 59.68 +05 45 18.8 19.2   704 – Lincoln Laboratory ETS, New Mexico MPS 116639
2004 10 16.18855 23 16 59.32 +05 28 30.1 19.0 R 699 – Lowell Observatory-LONEOS MPS 117620
2004 10 16.20560 23 16 58.78 +05 28 27.0   699 – Lowell Observatory-LONEOS MPS 117620
2004 10 16.22264 23 16 58.26 +05 28 25.8   699 – Lowell Observatory-LONEOS MPS 117620
2004 10 16.23969 23 16 57.89 +05 28 23.2   699 – Lowell Observatory-LONEOS MPS 117620
2006 01 07.44282 10 17 08.37 +11 02 21.1 20.9 V G96 – Mt. Lemmon Survey MPS 158959
2006 01 07.45050 10 17 08.19 +11 02 21.0 20.9 V G96 – Mt. Lemmon Survey MPS 158959
2006 01 07.45815 10 17 07.98 +11 02 21.2 21.1 V G96 – Mt. Lemmon Survey MPS 158959
2006 01 07.46580 10 17 07.76 +11 02 21.4 20.8 V G96 – Mt. Lemmon Survey MPS 158959
2006 01 30.28395 10 00 50.94 +11 34 52.8 20.1 V 691 – Steward Observatory, Kitt Peak-Spacewatch MPS 161785
2006 01 30.30171 10 00 49.78 +11 34 56.3 20.6 V 691 – Steward Observatory, Kitt Peak-Spacewatch MPS 161785
2006 01 30.31905 10 00 48.76 +11 34 59.0 20.6 V 691 – Steward Observatory, Kitt Peak-Spacewatch MPS 161785
2006 02 03.26894 09 56 50.74 +11 45 40.7   691 – Steward Observatory, Kitt Peak-Spacewatch MPS 162785
2006 02 03.28634 09 56 49.62 +11 45 43.1   691 – Steward Observatory, Kitt Peak-Spacewatch MPS 162785
2006 02 03.30367 09 56 48.46 +11 45 46.3   691 – Steward Observatory, Kitt Peak-Spacewatch MPS 162785
2006 02 07.27884 09 52 37.38 +11 57 18.3   691 – Steward Observatory, Kitt Peak-Spacewatch MPS 162785
2006 02 07.29619 09 52 36.23 +11 57 21.3   691 – Steward Observatory, Kitt Peak-Spacewatch MPS 162785
2006 02 07.31353 09 52 35.08 +11 57 24.4   691 – Steward Observatory, Kitt Peak-Spacewatch MPS 162785
2006 02 20.23393 09 38 34.11 +12 36 03.8 20.0 V 703 – Catalina Sky Survey MPS 163805
2006 02 20.24164 09 38 33.64 +12 36 04.4 20.2 V 703 – Catalina Sky Survey MPS 163805
2006 02 20.24935 09 38 33.21 +12 36 07.1 20.5 V 703 – Catalina Sky Survey MPS 163805
2006 02 20.25704 09 38 32.56 +12 36 07.7 20.5 V 703 – Catalina Sky Survey MPS 163805
2006 02 20.26518 09 38 32.20 +12 36 08.4 20.0 V 703 – Catalina Sky Survey MPS 163805
2006 02 20.27275 09 38 31.66 +12 36 11.9 20.3 V 703 – Catalina Sky Survey MPS 163805
